W3EJE-13 Weather Reports


Display with metric or nautical units.
time (UTC)temp
F
wind
direction
speed
MPH
gust
MPH
rain 1hr
in
rain 24hr
in
rain mn
in
humidity
%
barometer
mb
20260508202334 56 273 3.0 5.0 0.00 0.00 0.00 64 1014.2
20260508201831 56 316 5.0 6.0 0.00 0.00 0.00 64 1014.1
20260508201328 56 262 2.0 2.0 0.00 0.00 0.00 65 1014.3
20260508200824 56 283 5.0 6.0 0.00 0.00 0.00 63 1014.1
20260508200321 56 282 3.0 3.0 0.00 0.00 0.00 64 1014.3
20260508195817 56 262 2.0 2.0 0.00 0.00 0.00 64 1014.4
20260508195314 56 321 6.0 7.0 0.00 0.00 0.00 65 1014.5
20260508194810 56 348 7.0 8.0 0.00 0.00 0.00 63 1014.4
20260508194308 56 288 3.0 6.0 0.00 0.00 0.00 63 1014.4
20260508193805 56 294 5.0 6.0 0.00 0.00 0.00 64 1014.5
20260508193301 56 276 4.0 5.0 0.00 0.00 0.00 65 1014.6
20260508192757 56 316 2.0 3.0 0.00 0.00 0.00 65 1014.4
20260508192254 56 267 4.0 5.0 0.00 0.00 0.00 64 1014.4
20260508191752 56 329 3.0 3.0 0.00 0.00 0.00 64 1014.8
20260508191249 57 335 7.0 9.0 0.00 0.00 0.00 62 1014.6
20260508190746 57 271 1.0 1.0 0.00 0.00 0.00 62 1014.7
20260508190242 57 267 4.0 5.0 0.00 0.00 0.00 61 1014.4
20260508185738 57 308 7.0 9.0 0.00 0.00 0.00 62 1014.6
20260508185236 57 4 8.0 11.0 0.00 0.00 0.00 61 1014.6
20260508184733 57 355 8.0 14.0 0.00 0.00 0.00 59 1014.9
20260508184230 57 266 3.0 3.0 0.00 0.00 0.00 59 1014.6
20260508183727 58 28 7.0 11.0 0.00 0.00 0.00 62 1014.6
20260508183223 58 300 3.0 3.0 0.00 0.00 0.00 59 1014.6
20260508182719 58 212 5.0 7.0 0.00 0.00 0.00 58 1014.4
20260508182216 59 331 6.0 10.0 0.00 0.00 0.00 59 1014.4
20260508181712 59 266 7.0 8.0 0.00 0.00 0.00 58 1014.6
20260508181209 59 298 10.0 11.0 0.00 0.00 0.00 59 1014.5
20260508180706 58 282 5.0 7.0 0.00 0.00 0.00 59 1014.6
20260508180203 58 248 5.0 7.0 0.00 0.00 0.00 58 1014.5
20260508175659 58 328 9.0 13.0 0.00 0.00 0.00 61 1014.8
20260508175156 58 341 9.0 10.0 0.00 0.00 0.00 60 1014.8
20260508174654 59 247 3.0 5.0 0.00 0.00 0.00 55 1014.8
20260508174150 58 295 5.0 7.0 0.00 0.00 0.00 57 1014.8
20260508173647 58 260 2.0 5.0 0.00 0.00 0.00 60 1014.7
20260508173143 57 346 10.0 13.0 0.00 0.00 0.00 59 1014.7
20260508172640 58 269 5.0 7.0 0.00 0.00 0.00 57 1014.7
20260508172137 58 325 8.0 9.0 0.00 0.00 0.00 55 1014.9
20260508171633 57 320 8.0 10.0 0.00 0.00 0.00 58 1015.1
20260508171130 58 314 8.0 9.0 0.00 0.00 0.00 57 1015.0
20260508170627 56 302 8.0 10.0 0.00 0.00 0.00 56 1015.3
20260508170125 57 345 7.0 10.0 0.00 0.00 0.00 55 1015.3
20260508165622 57 330 7.0 9.0 0.00 0.00 0.00 57 1015.2
20260508165119 57 256 7.0 9.0 0.00 0.00 0.00 54 1015.3
20260508164615 58 284 10.0 13.0 0.00 0.00 0.00 55 1015.1
20260508164112 58 314 7.0 8.0 0.00 0.00 0.00 58 1015.1
20260508163609 57 302 10.0 13.0 0.00 0.00 0.00 56 1015.2
20260508163106 57 317 6.0 7.0 0.00 0.00 0.00 58 1015.2
20260508162603 56 265 7.0 9.0 0.00 0.00 0.00 56 1015.4
20260508162100 57 329 7.0 8.0 0.00 0.00 0.00 56 1015.2
20260508161557 56 329 9.0 13.0 0.00 0.00 0.00 58 1015.4
20260508161054 56 331 11.0 16.0 0.00 0.00 0.00 57 1015.5
20260508160552 55 345 12.0 14.0 0.00 0.00 0.00 55 1015.5
20260508160049 55 348 5.0 7.0 0.00 0.00 0.00 60 1015.4
20260508155546 56 227 3.0 3.0 0.00 0.00 0.00 60 1015.3
20260508155043 56 233 4.0 5.0 0.00 0.00 0.00 60 1015.4
20260508154540 55 344 4.0 8.0 0.00 0.00 0.00 60 1015.2
20260508154037 55 286 6.0 7.0 0.00 0.00 0.00 62 1015.5
20260508153534 54 211 5.0 7.0 0.00 0.00 0.00 60 1015.5
20260508153030 54 313 4.0 6.0 0.00 0.00 0.00 60 1015.7
20260508152527 54 269 9.0 10.0 0.00 0.00 0.00 60 1015.6
20260508152023 54 18 10.0 10.0 0.00 0.00 0.00 59 1015.6
20260508151520 54 300 9.0 10.0 0.00 0.00 0.00 59 1015.6
20260508151016 54 248 5.0 7.0 0.00 0.00 0.00 59 1015.6
20260508150514 53 17 7.0 9.0 0.00 0.00 0.00 60 1015.7
20260508150009 54 358 8.0 9.0 0.00 0.00 0.00 60 1016.0
20260508145506 54 320 7.0 9.0 0.00 0.00 0.00 59 1015.7
20260508145002 55 239 3.0 3.0 0.00 0.00 0.00 60 1015.7
20260508144500 54 279 3.0 5.0 0.00 0.00 0.00 57 1015.9
20260508143958 54 279 4.0 6.0 0.00 0.00 0.00 57 1015.6
20260508143455 53 336 9.0 10.0 0.00 0.00 0.00 61 1015.6
20260508142951 53 10 6.0 8.0 0.00 0.00 0.00 61 1015.9
20260508142449 52 293 5.0 7.0 0.00 0.00 0.00 59 1015.6
20260508141944 53 298 6.0 8.0 0.00 0.00 0.00 60 1015.6
20260508141442 52 300 9.0 13.0 0.00 0.00 0.00 59 1015.7
20260508140939 52 262 11.0 15.0 0.00 0.00 0.00 59 1016.0
20260508140436 52 312 4.0 5.0 0.00 0.00 0.00 60 1016.2
20260508135931 52 225 3.0 5.0 0.00 0.00 0.00 60 1015.9
20260508135428 52 276 8.0 10.0 0.00 0.00 0.00 61 1016.0
20260508134925 53 358 15.0 17.0 0.00 0.00 0.00 59 1016.0
20260508134421 52 103 11.0 13.0 0.00 0.00 0.00 62 1016.0
20260508133918 51 8 11.0 13.0 0.00 0.00 0.00 61 1015.9
20260508133416 51 290 8.0 10.0 0.00 0.00 0.00 61 1016.0
20260508132913 51 265 7.0 10.0 0.00 0.00 0.00 60 1015.7
20260508132411 51 35 6.0 8.0 0.00 0.00 0.00 63 1015.6
20260508131907 51 242 7.0 9.0 0.00 0.00 0.00 61 1016.0
20260508131402 50 216 4.0 7.0 0.00 0.00 0.00 62 1016.1
20260508130900 50 255 3.0 3.0 0.00 0.00 0.00 64 1015.7
20260508130356 50 260 3.0 5.0 0.00 0.00 0.00 63 1015.7
20260508125852 50 263 4.0 6.0 0.00 0.00 0.00 65 1016.0
20260508125348 50 280 5.0 5.0 0.00 0.00 0.00 65 1015.7
20260508124846 50 236 2.0 3.0 0.00 0.00 0.00 65 1015.9
20260508124343 50 285 4.0 5.0 0.00 0.00 0.00 62 1015.9
20260508123842 49 224 1.0 1.0 0.00 0.00 0.00 67 1015.9
20260508123340 48 259 1.0 1.0 0.00 0.00 0.00 69 1015.9
20260508122836 47 235 0.0 1.0 0.00 0.00 0.00 68 1015.7
20260508122333 47 246 0.0 0.0 0.00 0.00 0.00 70 1015.6
20260508121830 46 253 0.0 1.0 0.00 0.00 0.00 70 1015.7
20260508121328 46 232 1.0 1.0 0.00 0.00 0.00 71 1015.6
20260508120826 45 244 0.0 1.0 0.00 0.00 0.00 74 1015.6
20260508120323 44 260 3.0 3.0 0.00 0.00 0.00 77 1015.6
20260508115821 44 261 1.0 1.0 0.00 0.00 0.00 85 1015.6
20260508115318 42 257 1.0 1.0 0.00 0.00 0.00 86 1015.5
20260508114814 41 286 1.0 2.0 0.00 0.00 0.00 91 1015.7
20260508114312 40 264 2.0 2.0 0.00 0.00 0.00 93 1015.4
20260508113808 38 272 1.0 2.0 0.00 0.00 0.00 95 1015.4
20260508113306 37 256 0.0 0.0 0.00 0.00 0.00 96 1015.3
20260508112802 36 251 0.0 0.0 0.00 0.00 0.00 98 1015.3
20260508112300 36 251 1.0 1.0 0.00 0.00 0.00 99 1015.5
20260508111755 35 251 0.0 0.0 0.00 0.00 0.00 99 1015.5
20260508111254 34 235 0.0 0.0 0.00 0.00 0.00 99 1015.4
20260508110751 34 235 0.0 0.0 0.00 0.00 0.00 99 1015.4
20260508110248 33 235 0.0 0.0 0.00 0.00 0.00 99 1015.2
20260508105748 33 234 0.0 0.0 0.00 0.00 0.00 99 1015.2
20260508105244 33 234 0.0 0.0 0.00 0.00 0.00 99 1015.3
20260508104742 33 236 0.0 0.0 0.00 0.00 0.00 99 1015.1
20260508104239 33 236 0.0 0.0 0.00 0.00 0.00 99 1015.1
20260508103736 33 234 0.0 0.0 0.00 0.00 0.00 99 1015.1
20260508103233 32 234 0.0 0.0 0.00 0.00 0.00 99 1014.9
20260508102730 33 233 0.0 0.0 0.00 0.00 0.00 99 1015.1
20260508102228 33 232 0.0 0.0 0.00 0.00 0.00 99 1015.0
20260508101725 33 228 0.0 0.0 0.00 0.00 0.00 99 1015.1
20260508101223 33 253 1.0 1.0 0.00 0.00 0.00 99 1014.8
20260508100720 33 225 0.0 0.0 0.00 0.00 0.00 99 1015.1
20260508100218 32 225 0.0 0.0 0.00 0.00 0.00 99 1015.0
20260508095714 32 225 0.0 0.0 0.00 0.00 0.00 99 1015.1
20260508095212 32 224 0.0 0.0 0.00 0.00 0.00 99 1014.9
20260508094708 32 224 0.0 0.0 0.00 0.00 0.00 99 1015.2
20260508094205 32 224 1.0 1.0 0.00 0.00 0.00 98 1014.9
20260508093702 33 224 0.0 0.0 0.00 0.00 0.00 98 1015.1
20260508093200 33 225 0.0 0.0 0.00 0.00 0.00 98 1015.3
20260508092657 33 222 1.0 1.0 0.00 0.00 0.00 98 1015.2
20260508092155 32 231 0.0 1.0 0.00 0.00 0.00 98 1015.1
20260508091652 32 237 0.0 0.0 0.00 0.00 0.00 98 1015.4
20260508091149 32 239 0.0 0.0 0.00 0.00 0.00 98 1015.2
20260508090647 32 239 0.0 0.0 0.00 0.00 0.00 98 1015.1
20260508090144 32 241 0.0 0.0 0.00 0.00 0.00 98 1015.2
20260508085640 33 237 0.0 0.0 0.00 0.00 0.00 97 1015.2
20260508085138 33 226 0.0 0.0 0.00 0.00 0.00 97 1015.2
20260508084634 33 227 0.0 1.0 0.00 0.00 0.00 97 1014.9
20260508084131 33 226 0.0 0.0 0.00 0.00 0.00 97 1014.7
20260508083628 33 228 0.0 0.0 0.00 0.00 0.00 97 1015.0
20260508083126 33 228 0.0 0.0 0.00 0.00 0.00 97 1015.1
20260508082621 33 229 0.0 0.0 0.00 0.00 0.00 97 1015.0
20260508082119 34 229 0.0 0.0 0.00 0.00 0.00 96 1015.1
20260508081616 34 228 0.0 0.0 0.00 0.00 0.00 96 1014.9
20260508081112 34 229 0.0 0.0 0.00 0.00 0.00 96 1015.0
20260508080610 34 255 1.0 1.0 0.00 0.00 0.00 95 1014.9
20260508080108 34 245 0.0 0.0 0.00 0.00 0.00 95 1015.1
20260508075603 34 246 0.0 0.0 0.00 0.00 0.00 95 1015.2
20260508075101 34 246 0.0 0.0 0.00 0.00 0.00 94 1014.8
20260508074559 35 246 0.0 0.0 0.00 0.00 0.00 94 1014.7
20260508074055 35 239 0.0 1.0 0.00 0.00 0.00 94 1014.8
20260508073553 35 239 0.0 0.0 0.00 0.00 0.00 93 1014.9
20260508073050 35 234 0.0 0.0 0.00 0.00 0.00 93 1014.8
20260508072546 35 237 0.0 0.0 0.00 0.00 0.00 92 1014.7
20260508072043 35 237 0.0 0.0 0.00 0.00 0.00 92 1014.9
20260508071541 36 223 1.0 1.0 0.00 0.00 0.00 91 1014.9
20260508071038 36 223 0.0 0.0 0.00 0.00 0.00 91 1014.7
20260508070536 36 222 0.0 0.0 0.00 0.00 0.00 91 1014.8
20260508070034 36 230 0.0 0.0 0.00 0.00 0.00 90 1014.9
20260508065531 36 230 0.0 0.0 0.00 0.00 0.00 90 1014.9
20260508065029 36 228 0.0 0.0 0.00 0.00 0.00 90 1014.9
20260508064527 37 224 0.0 0.0 0.00 0.00 0.00 90 1014.9
20260508064024 37 223 1.0 1.0 0.00 0.00 0.00 90 1015.1
20260508063521 37 224 0.0 0.0 0.00 0.00 0.00 89 1015.3
20260508063019 37 224 0.0 1.0 0.00 0.00 0.00 89 1015.3
20260508062517 37 230 0.0 1.0 0.00 0.00 0.00 89 1015.2
20260508062013 37 220 0.0 0.0 0.00 0.00 0.00 88 1015.3
20260508061512 37 232 0.0 0.0 0.00 0.00 0.00 88 1015.2
20260508061008 38 211 1.0 1.0 0.00 0.00 0.00 88 1015.1
20260508060505 38 231 0.0 0.0 0.00 0.00 0.00 87 1015.2
20260508060001 38 209 1.0 1.0 0.00 0.00 0.00 87 1015.2
20260508055458 38 204 1.0 1.0 0.00 0.00 0.00 87 1015.1
20260508054954 39 227 0.0 0.0 0.00 0.00 0.00 87 1015.2
20260508054451 39 221 0.0 1.0 0.00 0.00 0.00 86 1015.3
20260508053948 39 210 1.0 1.0 0.00 0.00 0.00 86 1015.2
20260508053445 39 230 0.0 0.0 0.00 0.00 0.00 85 1015.1
20260508052943 40 232 0.0 0.0 0.00 0.00 0.00 84 1015.1
20260508052440 40 188 1.0 2.0 0.00 0.00 0.00 83 1015.0
20260508051937 41 206 1.0 1.0 0.00 0.00 0.00 82 1015.2
20260508051432 41 216 1.0 1.0 0.00 0.00 0.00 80 1015.4
20260508050928 42 213 1.0 1.0 0.00 0.00 0.00 78 1015.3
20260508050425 42 221 0.0 0.0 0.00 0.00 0.00 76 1015.2
20260508045921 43 265 1.0 1.0 0.00 0.00 0.00 74 1015.3
20260508045419 43 264 1.0 1.0 0.00 0.00 0.00 74 1015.2
20260508044916 44 254 0.0 1.0 0.00 0.00 0.00 71 1015.1
20260508044414 44 253 0.0 0.0 0.00 0.00 0.00 70 1015.0
20260508043909 45 245 0.0 0.0 0.00 0.00 0.00 69 1014.9
20260508043406 45 253 1.0 2.0 0.00 0.00 0.00 69 1014.9
20260508042902 45 260 2.0 2.0 0.00 0.00 0.00 69 1014.9
20260508042401 45 357 2.0 3.0 0.00 0.00 0.00 68 1014.9
20260508041857 45 270 1.0 2.0 0.00 0.00 0.00 68 1015.2
20260508041353 46 284 4.0 5.0 0.00 0.00 0.00 68 1014.9
20260508040850 46 273 3.0 3.0 0.00 0.00 0.00 68 1015.0
20260508040347 46 262 4.0 5.0 0.00 0.00 0.00 67 1014.8
20260508035845 46 257 2.0 2.0 0.00 0.00 0.00 68 1014.8
20260508035342 46 271 2.0 3.0 0.00 0.00 0.00 68 1014.8
20260508034839 46 254 1.0 1.0 0.00 0.00 0.00 67 1014.8
20260508034336 47 282 3.0 3.0 0.00 0.00 0.00 67 1014.6
20260508033832 47 272 2.0 2.0 0.00 0.00 0.00 66 1014.5
20260508033331 46 314 4.0 5.0 0.00 0.00 0.00 67 1014.7
20260508032828 47 274 4.0 5.0 0.00 0.00 0.00 66 1014.7
20260508032325 47 269 2.0 2.0 0.00 0.00 0.00 66 1014.7
20260508031822 47 266 1.0 3.0 0.00 0.00 0.00 65 1014.5
20260508031319 48 306 5.0 6.0 0.00 0.00 0.00 65 1014.5
20260508030815 48 348 4.0 5.0 0.00 0.00 0.00 65 1014.4
20260508030313 48 288 5.0 6.0 0.00 0.00 0.00 65 1014.7
20260508025809 48 261 3.0 3.0 0.00 0.00 0.00 65 1014.5
20260508025306 48 289 5.0 7.0 0.00 0.00 0.00 64 1014.4
20260508024802 49 320 7.0 9.0 0.00 0.00 0.00 63 1014.4
20260508024259 49 315 5.0 8.0 0.00 0.00 0.00 63 1014.3
20260508023756 48 274 6.0 8.0 0.00 0.00 0.00 62 1014.5
20260508023253 49 260 3.0 5.0 0.00 0.00 0.00 62 1014.5
20260508022749 49 281 5.0 6.0 0.00 0.00 0.00 61 1014.1
20260508022246 49 35 8.0 9.0 0.00 0.00 0.00 62 1014.2
20260508021743 49 259 4.0 5.0 0.00 0.00 0.00 61 1014.1
20260508021238 49 283 4.0 5.0 0.00 0.00 0.00 60 1013.9
20260508020735 50 303 4.0 5.0 0.00 0.00 0.00 60 1013.8
20260508020233 50 252 4.0 5.0 0.00 0.00 0.00 60 1013.7
20260508015729 50 267 4.0 5.0 0.00 0.00 0.00 60 1013.6
20260508015227 50 279 3.0 3.0 0.00 0.00 0.00 60 1013.9
20260508014724 50 250 2.0 3.0 0.00 0.00 0.00 61 1013.6
20260508014220 50 254 2.0 2.0 0.00 0.00 0.00 62 1013.5
20260508013716 50 277 3.0 5.0 0.00 0.00 0.00 60 1013.7
20260508013212 50 276 2.0 2.0 0.00 0.00 0.00 62 1013.4
20260508012711 50 263 2.0 2.0 0.00 0.00 0.00 60 1013.4
20260508012207 50 266 1.0 2.0 0.00 0.00 0.00 60 1013.2
20260508011705 50 285 1.0 2.0 0.00 0.00 0.00 59 1013.1
20260508011203 50 260 2.0 2.0 0.00 0.00 0.00 59 1013.2
20260508010659 50 248 1.0 1.0 0.00 0.00 0.00 59 1013.1
20260508010157 50 255 0.0 1.0 0.00 0.00 0.00 60 1012.8
20260508005654 50 245 2.0 2.0 0.00 0.00 0.00 59 1012.8
20260508005150 51 253 1.0 1.0 0.00 0.00 0.00 59 1013.0
20260508004646 51 8 5.0 6.0 0.00 0.00 0.00 57 1012.9
20260508004143 51 338 5.0 6.0 0.00 0.00 0.00 56 1012.9
20260508003639 51 283 2.0 2.0 0.00 0.00 0.00 59 1012.7
20260508003137 51 275 2.0 3.0 0.00 0.00 0.00 58 1012.6
20260508002633 51 295 6.0 7.0 0.00 0.00 0.00 57 1012.6
20260508002131 52 324 5.0 6.0 0.00 0.00 0.00 56 1012.3
20260508001626 52 275 4.0 5.0 0.00 0.00 0.00 56 1012.6
20260508001122 52 264 6.0 7.0 0.00 0.00 0.00 55 1012.6
20260508000618 52 312 6.0 7.0 0.00 0.00 0.00 56 1012.5
20260508000116 53 259 5.0 6.0 0.00 0.00 0.00 56 1012.1
20260507235613 53 304 3.0 3.0 0.00 0.00 0.00 54 1012.1
20260507235110 53 288 4.0 5.0 0.00 0.00 0.00 56 1012.4
20260507234606 53 281 4.0 5.0 0.00 0.00 0.00 55 1012.0
20260507234103 54 273 3.0 3.0 0.00 0.00 0.00 54 1012.0
20260507233600 54 260 3.0 3.0 0.00 0.00 0.00 55 1012.0
20260507233059 53 302 4.0 6.0 0.00 0.00 0.00 54 1012.0
20260507232554 54 288 7.0 8.0 0.00 0.00 0.00 55 1012.0
20260507232052 55 350 10.0 15.0 0.00 0.00 0.00 53 1012.0
20260507231548 55 289 4.0 6.0 0.00 0.00 0.00 56 1011.8
20260507231045 55 300 5.0 7.0 0.00 0.00 0.00 53 1011.7
20260507230542 56 267 6.0 8.0 0.00 0.00 0.00 54 1011.6
20260507230038 55 35 9.0 13.0 0.00 0.00 0.00 53 1011.6
20260507225533 56 12 7.0 9.0 0.00 0.00 0.00 55 1011.8
20260507225030 55 249 3.0 3.0 0.00 0.00 0.00 53 1011.4
20260507224526 55 344 9.0 11.0 0.00 0.00 0.00 54 1011.4
20260507224022 55 278 9.0 11.0 0.00 0.00 0.00 55 1011.4
20260507223519 55 319 5.0 7.0 0.00 0.00 0.00 55 1011.5
20260507223016 55 24 9.0 11.0 0.00 0.00 0.00 54 1011.5
20260507222513 55 354 9.0 10.0 0.00 0.00 0.00 55 1011.5
20260507222009 55 266 4.0 5.0 0.00 0.00 0.00 57 1011.5
20260507221506 55 314 9.0 9.0 0.00 0.00 0.00 56 1011.5
20260507221003 55 306 7.0 8.0 0.00 0.00 0.00 58 1011.4
20260507220500 56 322 11.0 14.0 0.00 0.00 0.00 58 1011.3
20260507215956 55 317 4.0 7.0 0.00 0.00 0.00 56 1011.1
20260507215453 56 311 9.0 11.0 0.00 0.00 0.00 55 1011.1
20260507214951 55 284 5.0 6.0 0.00 0.00 0.00 59 1011.1
20260507214448 55 347 11.0 15.0 0.00 0.00 0.00 57 1011.3
20260507213943 56 351 14.0 17.0 0.00 0.00 0.00 53 1011.1
20260507213440 56 29 10.0 11.0 0.00 0.00 0.00 53 1011.2
20260507212937 57 283 6.0 8.0 0.00 0.00 0.00 53 1011.1
20260507212433 56 268 4.0 5.0 0.00 0.00 0.00 53 1011.2
20260507211930 56 268 5.0 6.0 0.00 0.00 0.00 53 1011.0
20260507211426 56 328 10.0 13.0 0.00 0.00 0.00 53 1011.2
20260507210923 56 357 13.0 15.0 0.00 0.00 0.00 53 1011.0
20260507210420 56 332 7.0 8.0 0.00 0.00 0.00 54 1011.0
20260507205917 57 9 9.0 13.0 0.00 0.00 0.00 54 1010.8
20260507205415 56 285 4.0 5.0 0.00 0.00 0.00 53 1011.1
20260507204910 56 281 8.0 10.0 0.00 0.00 0.00 54 1010.9
20260507204407 57 333 3.0 5.0 0.00 0.00 0.00 54 1011.1
20260507203905 57 281 5.0 5.0 0.00 0.00 0.00 55 1011.3
20260507203403 58 228 4.0 5.0 0.00 0.00 0.00 52 1010.9
20260507202858 56 355 14.0 18.0 0.00 0.00 0.00 55 1010.9
20260507202355 57 288 12.0 15.0 0.00 0.00 0.00 54 1011.2